Orbital Elements at Epoch 2459200.5 (2020-Dec-17.0) TDB
Reference: JPL 14 (heliocentric ecliptic J2000)
Element | Value | Uncertainty (1-sigma) | Units |
e | .08050827846955008 | 6.1188e-08 | |
a | 2.83751612142115 | 1.8731e-08 | au |
q | 2.609072583355939 | 1.7717e-07 | au |
i | 1.024746066594268 | 4.311e-06 | deg |
node | 308.7412296582925 | 0.00034956 | deg |
peri | 56.43485027858014 | 0.00035053 | deg |
M | 255.8890043605558 | 2.8743e-05 | deg |
tp | 2459705.393793823449 (2022-May-05.89379382) | 0.00014161 | TDB |
period | 1745.846004642167 4.78 | 1.7287e-05 4.733e-08 | d yr |
n | .2062037539638477 | 2.0418e-09 | deg/d |
Q | 3.065959659486362 | 2.0239e-08 | au |
|
| | Orbit Determination Parameters
Additional Information
|